User: anonymous   Login
Location: Unspecified
(0.0000°N, 0.0000°E)
Time: 19:15:11
(UTC+00:00)
Language:

PAYLOAD A - Orbit

View from above orbital plane
View from above orbital plane
View from above satellite
View from above satellite

Ground track
Ground track

The orbit data is extracted from the following two-line orbital elements,

1 27946U 03043B   21262.04875981 -.00000236  00000-0  22888-3 0  9996
2 27946   7.5285 254.7822 7169787 277.8191  12.9404  2.23499097146845
Epoch (UTC): 19 September 2021 01:10:12
Eccentricity: 0.7169787
inclination: 7.5285°
perigee height: 615 km
apogee height: 36049 km
right ascension of ascending node: 254.7822°
argument of perigee: 277.8191°
revolutions per day: 2.23499097
mean anomaly at epoch: 12.9404°
orbit number at epoch: 14684

The dashed part of the orbit path shows where the satellite is in the earth's shadow,  

DLR